Location: Molveno
(46.1500°N, 10.9667°E)
Time: 16:24:53
(UTC+00:00)

SPOT 5 - Pass Details

Date: 05 July 2020
Orbit: 622 x 815 km, 98.3° (Epoch: 11 August)

Event Time Altitude Azimuth Distance (km) Brightness Sun altitude
Exits shadow 21:13:54 19° 182° (S) 1,749 4.4 -15.4°
Maximum altitude 21:17:28 61° 258° (WSW) 844 3.3 -15.7°
Drops below altitude 10° 21:22:15 10° 339° (NNW) 2,198 6.7 -16.1°
Sets 21:24:29 0° 343° (NNW) 3,091 7.8 -16.3°
